Kuiper-00038

operational
NORAD ID: 63750 Int'l Des: 2025-088 Owner: KUIP Country: US Constellation: kuiper
LEOCIRCULAR

About Kuiper-00038

Description loading...

Live Position

Loading 3D Globe...

Upcoming Passes

Altitude History

Altitude vs Time

uPlot chart will show altitude changes over time

Two-Line Element Set

1 63750U 25088AC 25277.82893745 .00004083 00000-0 59439-3 0 9991
2 63750 51.9006 66.8955 0005311 285.1387 74.8986 14.77700580 24442
Epoch: Oct 4, 2025 • Age: 36 hours

Current Status

Altitude 636.2 km
Velocity 7.54 km/s
Sub-Earth Point 11.06°N, 61.14°W
Launch Date Apr 28, 2025
Age 0.4 years
Type internet

Technical Details

Classification Payload
Mass 490.00 kg
Dry Mass 490.00 kg
Total Mass 490.00 kg
Length 1.80 m
Diameter 0.70 m
Span 5.00 m
Shape Box + 2 pan
Manufacturer KUIP
Bus Type Kuiper
Phase Status In Orbit
Owner/State KUIP/US

Large Constellations

Loading constellations...